Regional Weather Roundup
Issued by NWS

Home | Current Version | Previous Version | Text Only | Print | Product List | Glossary Off
Versions: 1 2 3 4 5 6 7 8 9 10 11 12 13 14 15 16 17 18 19 20 21 22 23 24 25 26 27 28 29 30 31 32 33 34 35 36 37 38 39 40 41 42 43 44 45 46 47 48 49 50

000
ASUS43 KLSX 031357
RWRMO

WEATHER SUMMARY FOR MISSOURI
NATIONAL WEATHER SERVICE SPRINGFIELD MO
900 AM CDT THU SEP 03 2015

NOTE: "FAIR" INDICATES FEW OR NO CLOUDS BELOW 12,000 FEET WITH NO
       SIGNIFICANT WEATHER AND/OR OBSTRUCTIONS TO VISIBILITY.
       CURRENT SKY AND/OR WEATHER CONDITIONS ARE NOT AVAILABLE FOR
       CHILLICOTHE AND FARMINGTON.

MOZ001>031-035>038-043-044-053-054-031500-
...NORTHERN AND WESTERN MISSOURI...

CITY           SKY/WX    TMP DP  RH WIND       PRES   REMARKS
KANSAS CTY INT MOSUNNY   79  68  69 S13       29.96R
LEE`S SUMMIT   SUNNY     77  67  71 SW12      29.98S
ST JOSEPH      LGT RAIN  75  69  81 S8        29.94S

$$
MOZ066>068-077>081-088>096-101>105-031500-
...SOUTHWEST MISSOURI...

CITY           SKY/WX    TMP DP  RH WIND       PRES   REMARKS
SPRINGFIELD    SUNNY     75  68  78 S8        30.04R
JOPLIN         SUNNY     77  68  73 S9        30.03R

$$
MOZ032>034-039>042-045>050-055>058-069>072-031500-
...CENTRAL MISSOURI...

CITY           SKY/WX    TMP DP  RH WIND       PRES   REMARKS
COLUMBIA       NOT AVBL
JEFFERSON CITY PTSUNNY   74  69  85 SE5       30.01S
ROLLA          MOSUNNY   77  68  73 S9        30.03S
SEDALIA        SUNNY     78  68  71 S10       30.02R

$$
MOZ051-052-059>065-031500-
...EAST CENTRAL MISSOURI...

CITY           SKY/WX    TMP DP  RH WIND       PRES   REMARKS
ST LOUIS INTL  MOSUNNY   83  69  62 SW3       30.03S

$$
MOZ072>076-082>087-097>100-106>115-031500-
...SOUTH CENTRAL AND SOUTHEAST MISSOURI...

CITY           SKY/WX    TMP DP  RH WIND       PRES   REMARKS
CAPE GIRARDEAU SUNNY     77  70  79 CALM      30.04S
POPLAR BLUFF   SUNNY     76  71  85 CALM      30.03S
WEST PLAINS    SUNNY     76  68  76 S3        30.08R

$$


USA.gov is the U.S. government's official web portal to all federal, state and local government web resources and services.